Find Starlink 1531

NORAD ID: 46572 Int'l Des: 2020-070 Owner: SPXS Country: US Constellation: starlink operational
LEOCIRCULAR

現在のビュー

3D地球を読み込み中...

Starlink 1531について

説明を読み込み中...

次回通過

Passes for default location (London). Set your location on the main map for personalized predictions.

高度履歴

Loading altitude history...

軌道要素

1 46572U 20070AS 26150.25002315 .00187151 00000-0 79287-3 0 9994
2 46572 53.0468 94.5976 0007275 123.0771 210.8605 15.84277814 5996
Epoch: May 30, 2026 • Age: 4 hours

現在のステータス

高度 323.3 km
速度 7.71 km/s
衛星直下点 -20.77°S, 107.77°W
打ち上げ日 Oct 6, 2020
運用期間 5.6 years
タイプ internet

技術仕様

分類 Payload
質量 260.00 kg
乾燥質量 248.00 kg
総質量 260.00 kg
長さ 0.20 m
直径 2.80 m
スパン 9.00 m
形状 Box + pan
製造者 SPXS
バスタイプ Starlink
フェーズステータス In Orbit
所有者/国 SPXS/US

Most Searched